Pipestone, MN

6:04 AM CDT on October 21, 2019 (GMT -0500)
Pipestone Municipal

Weather History for KPQN - September, 2019

Change the Weather History Date:

Saturday, September 21, 2019

  Actual Average Record
Temperature  
Mean Temperature 68 °F -  
Max Temperature 80 °F 66 °F 89 °F (2005)
Min Temperature 57 °F 45 °F 33 °F (1999)
Cooling Degree Days 4    
Growing Degree Days 18 (Base 50)    
Moisture  
Dew Point 64 °F    
Average Humidity 78    
Maximum Humidity 100    
Minimum Humidity 53    
Precipitation  
Precipitation 0.12 in - - ()
Sea Level Pressure  
Sea Level Pressure 29.80 in    
Wind  
Wind Speed 11 mph ()    
Max Wind Speed 17 mph    
Max Gust Speed 29 mph    
Visibility 9.9 miles    
Events Rain , Thunderstorm    
Averages and records for this station are not official NWS values.
T = Trace of Precipitation, MM = Missing Value Source: Averaged Metar Reports

Daily Weather History Graph

Daily Weather History Graph

Search for Another Location

Airport or City:

Astronomy

Sep. 21, 2019 Rise Set
Actual Time 7:11 AM CDT 7:24 PM CDT
Civil Twilight 6:42 AM CDT 7:53 PM CDT
Nautical Twilight 6:08 AM CDT 8:27 PM CDT
Astronomical Twilight 5:33 AM CDT 9:01 PM CDT
Moon 11:50 PM CDT 2:31 PM CDT
Length of Visible Light 13h 11m
Length of Day
12h 13m
Waning Gibbous, 54% of the Moon is Illuminated
Sep 21
Waning Gibbous
Sep 21
Last Quarter
Sep 28
New
Oct 5
First Quarter
Oct 13
Full

Hourly Weather History & Observations

Time (CDT) Temp. Heat Index Dew Point Humidity Pressure Visibility Wind Dir Wind Speed Gust Speed Precip Events Conditions
12:15 AM 71.6 °F - 66.2 °F 83% 29.85 in 10.0 mi SSW 13.8 mph 20.7 mph N/A   Scattered Clouds
12:16 AM 71.6 °F - 66.2 °F 83% 29.85 in 10.0 mi SSW 13.8 mph 18.4 mph N/A   Scattered Clouds
12:35 AM 71.6 °F - 66.2 °F 83% 29.84 in 10.0 mi SSW 12.7 mph - N/A   Scattered Clouds
12:36 AM 71.6 °F - 66.2 °F 83% 29.84 in 10.0 mi SSW 12.7 mph - N/A   Scattered Clouds
12:58 AM 71.6 °F - 66.2 °F 83% 29.84 in 10.0 mi SSW 13.8 mph 18.4 mph N/A   Mostly Cloudy
1:17 AM 71.6 °F - 66.2 °F 83% 29.84 in 10.0 mi SSW 17.3 mph 23.0 mph N/A   Mostly Cloudy
1:36 AM 71.6 °F - 66.2 °F 83% 29.84 in 10.0 mi SSW 15.0 mph 21.9 mph N/A   Mostly Cloudy
1:55 AM 71.6 °F - 66.2 °F 83% 29.83 in 10.0 mi SSW 15.0 mph 24.2 mph N/A   Overcast
2:18 AM 71.6 °F - 66.2 °F 83% 29.83 in 10.0 mi SSW 13.8 mph 20.7 mph N/A   Overcast
2:36 AM 71.6 °F - 66.2 °F 83% 29.82 in 10.0 mi SSW 12.7 mph 17.3 mph N/A   Mostly Cloudy
2:56 AM 69.8 °F - 66.2 °F 88% 29.81 in 10.0 mi SSW 13.8 mph 19.6 mph N/A   Scattered Clouds
3:15 AM 69.8 °F - 66.2 °F 88% 29.80 in 10.0 mi SSW 15.0 mph 20.7 mph N/A   Scattered Clouds
3:16 AM 69.8 °F - 66.2 °F 88% 29.80 in 10.0 mi SSW 16.1 mph 20.7 mph N/A   Scattered Clouds
3:35 AM 69.8 °F - 66.2 °F 88% 29.79 in 10.0 mi SSW 15.0 mph 21.9 mph N/A   Scattered Clouds
3:36 AM 69.8 °F - 66.2 °F 88% 29.79 in 10.0 mi SSW 15.0 mph 21.9 mph N/A   Scattered Clouds
3:59 AM 69.8 °F - 66.2 °F 88% 29.78 in 10.0 mi SSW 13.8 mph 18.4 mph N/A   Scattered Clouds
4:16 AM 69.8 °F - 66.2 °F 88% 29.78 in 10.0 mi SSW 11.5 mph 17.3 mph N/A   Scattered Clouds
4:35 AM 69.8 °F - 66.2 °F 88% 29.77 in 10.0 mi SSW 13.8 mph 20.7 mph N/A   Scattered Clouds
4:55 AM 69.8 °F - 66.2 °F 88% 29.76 in 10.0 mi South 13.8 mph 19.6 mph N/A   Scattered Clouds
4:56 AM 69.8 °F - 66.2 °F 88% 29.76 in 10.0 mi South 13.8 mph 19.6 mph N/A   Scattered Clouds
5:15 AM 69.8 °F - 66.2 °F 88% 29.75 in 10.0 mi SSW 12.7 mph 19.6 mph N/A   Scattered Clouds
5:19 AM 69.8 °F - 66.2 °F 88% 29.74 in 10.0 mi South 17.3 mph 25.3 mph N/A   Scattered Clouds
5:38 AM 69.8 °F - 68.0 °F 94% 29.76 in 7.0 mi SSW 15.0 mph - N/A   Scattered Clouds
5:55 AM 69.8 °F - 68.0 °F 94% 29.75 in 10.0 mi SSW 13.8 mph - N/A   Scattered Clouds
6:15 AM 71.6 °F - 68.0 °F 88% 29.74 in 10.0 mi SSW 17.3 mph 21.9 mph N/A Thunderstorm Scattered Clouds
6:35 AM 71.6 °F - 68.0 °F 88% 29.75 in 10.0 mi SSW 13.8 mph 23.0 mph N/A Thunderstorm Drizzle
6:36 AM 71.6 °F - 68.0 °F 88% 29.75 in 7.0 mi SW 12.7 mph 23.0 mph N/A Thunderstorm Drizzle
6:58 AM 69.8 °F - 68.0 °F 94% 29.74 in 2.5 mi SSW 13.8 mph 28.8 mph N/A Rain , Thunderstorm Heavy Thunderstorms and Rain
7:17 AM 69.8 °F - 68.0 °F 94% 29.75 in 10.0 mi SSW 11.5 mph - 0.12 in Rain Light Rain
7:36 AM 69.8 °F - 68.0 °F 94% 29.75 in 10.0 mi SSW 12.7 mph 17.3 mph 0.12 in Thunderstorm Thunderstorm
7:56 AM 69.8 °F - 69.8 °F 100% 29.76 in 10.0 mi SSW 10.4 mph - N/A   Scattered Clouds
8:15 AM 69.8 °F - 68.0 °F 94% 29.75 in 10.0 mi SSW 6.9 mph - N/A Thunderstorm Thunderstorm
8:38 AM 71.6 °F - 69.8 °F 94% 29.75 in 10.0 mi SSW 11.5 mph - N/A   Scattered Clouds
8:58 AM 71.6 °F - 69.8 °F 94% 29.75 in 10.0 mi Calm Calm - N/A   Clear
9:15 AM 71.6 °F - 69.8 °F 94% 29.76 in 10.0 mi SW 11.5 mph 20.7 mph N/A   Scattered Clouds
9:35 AM 71.6 °F - 69.8 °F 94% 29.76 in 10.0 mi SSW 12.7 mph 18.4 mph N/A   Clear
9:36 AM 71.6 °F - 69.8 °F 94% 29.76 in 10.0 mi SW 12.7 mph 18.4 mph N/A   Clear
9:55 AM 73.4 °F - 69.8 °F 88% 29.75 in 10.0 mi SW 12.7 mph 21.9 mph N/A   Scattered Clouds
10:18 AM 73.4 °F - 69.8 °F 88% 29.75 in 10.0 mi SW 11.5 mph - N/A   Clear
10:37 AM 73.4 °F - 69.8 °F 88% 29.75 in 10.0 mi SW 11.5 mph - N/A   Clear
10:56 AM 75.2 °F - 71.6 °F 89% 29.75 in 10.0 mi SW 10.4 mph 16.1 mph N/A   Clear
11:15 AM 75.2 °F - 71.6 °F 89% 29.75 in 10.0 mi SW 15.0 mph 19.6 mph N/A   Clear
11:35 AM 75.2 °F - 69.8 °F 83% 29.75 in 10.0 mi WSW 13.8 mph - N/A   Clear
11:39 AM 75.2 °F - 69.8 °F 83% 29.75 in 10.0 mi WSW 12.7 mph - N/A   Clear
11:57 AM 77.0 °F - 71.6 °F 83% 29.75 in 10.0 mi WSW 15.0 mph 20.7 mph N/A   Scattered Clouds
12:16 PM 78.8 °F - 69.8 °F 74% 29.76 in 10.0 mi West 16.1 mph 21.9 mph N/A   Clear
12:35 PM 78.8 °F - 66.2 °F 65% 29.76 in 10.0 mi West 13.8 mph 20.7 mph N/A   Clear
12:36 PM 78.8 °F - 66.2 °F 65% 29.76 in 10.0 mi WSW 13.8 mph 20.7 mph N/A   Clear
12:55 PM 78.8 °F - 64.4 °F 61% 29.76 in 10.0 mi WSW 15.0 mph 18.4 mph N/A   Clear
12:56 PM 78.8 °F - 64.4 °F 61% 29.76 in 10.0 mi WSW 15.0 mph 18.4 mph N/A   Clear
1:18 PM 78.8 °F - 64.4 °F 61% 29.76 in 10.0 mi West 11.5 mph - N/A   Clear
1:36 PM 78.8 °F - 64.4 °F 61% 29.76 in 10.0 mi West 11.5 mph - N/A   Clear
1:55 PM 78.8 °F - 64.4 °F 61% 29.76 in 10.0 mi WSW 10.4 mph 16.1 mph N/A   Clear
2:15 PM 78.8 °F - 64.4 °F 61% 29.76 in 10.0 mi WSW 12.7 mph 19.6 mph N/A   Clear
2:16 PM 78.8 °F - 64.4 °F 61% 29.77 in 10.0 mi WSW 12.7 mph 19.6 mph N/A   Clear
2:35 PM 80.6 °F 82.3 °F 64.4 °F 58% 29.77 in 10.0 mi West 15.0 mph 19.6 mph N/A   Clear
2:40 PM 78.8 °F - 64.4 °F 61% 29.77 in 10.0 mi West 13.8 mph 19.6 mph N/A   Clear
2:58 PM 78.8 °F - 62.6 °F 57% 29.77 in 10.0 mi West 12.7 mph 17.3 mph N/A   Clear
3:15 PM 78.8 °F - 64.4 °F 61% 29.78 in 10.0 mi West 11.5 mph - N/A   Clear
3:35 PM 78.8 °F - 64.4 °F 61% 29.78 in 10.0 mi West 13.8 mph 17.3 mph N/A   Clear
3:55 PM 78.8 °F - 62.6 °F 57% 29.78 in 10.0 mi West 13.8 mph 18.4 mph N/A   Clear
3:56 PM 78.8 °F - 62.6 °F 57% 29.78 in 10.0 mi West 12.7 mph - N/A   Clear
4:18 PM 78.8 °F - 62.6 °F 57% 29.78 in 10.0 mi WNW 12.7 mph 17.3 mph N/A   Clear
4:37 PM 78.8 °F - 62.6 °F 57% 29.78 in 10.0 mi West 11.5 mph 17.3 mph N/A   Clear
4:55 PM 78.8 °F - 62.6 °F 57% 29.79 in 10.0 mi West 15.0 mph 18.4 mph N/A   Clear
5:15 PM 77.0 °F - 62.6 °F 61% 29.80 in 10.0 mi West 9.2 mph - N/A   Clear
5:56 PM 75.2 °F - 62.6 °F 65% 29.81 in 10.0 mi WNW 10.4 mph - N/A   Clear
6:15 PM 75.2 °F - 57.2 °F 53% 29.81 in 10.0 mi WNW 11.5 mph 16.1 mph N/A   Clear
6:16 PM 75.2 °F - 57.2 °F 53% 29.81 in 10.0 mi WNW 11.5 mph 16.1 mph N/A   Clear
6:35 PM 73.4 °F - 59.0 °F 61% 29.82 in 10.0 mi West 8.1 mph - N/A   Clear
6:36 PM 73.4 °F - 59.0 °F 61% 29.82 in 10.0 mi West 6.9 mph - N/A   Clear
6:55 PM 71.6 °F - 59.0 °F 64% 29.83 in 10.0 mi West 5.8 mph - N/A   Clear
6:59 PM 71.6 °F - 59.0 °F 64% 29.83 in 10.0 mi West 5.8 mph - N/A   Clear
7:16 PM 69.8 °F - 57.2 °F 64% 29.85 in 10.0 mi West 6.9 mph - N/A   Clear
7:35 PM 66.2 °F - 57.2 °F 73% 29.86 in 10.0 mi West 5.8 mph - N/A   Clear
7:36 PM 66.2 °F - 57.2 °F 73% 29.86 in 10.0 mi West 6.9 mph - N/A   Clear
7:55 PM 66.2 °F - 57.2 °F 73% 29.87 in 10.0 mi WNW 6.9 mph - N/A   Clear
7:56 PM 66.2 °F - 57.2 °F 73% 29.87 in 10.0 mi WNW 6.9 mph - N/A   Clear
8:15 PM 66.2 °F - 59.0 °F 78% 29.87 in 10.0 mi WNW 5.8 mph - N/A   Clear
8:19 PM 66.2 °F - 57.2 °F 73% 29.87 in 10.0 mi WNW 5.8 mph - N/A   Clear
8:38 PM 66.2 °F - 57.2 °F 73% 29.88 in 10.0 mi WNW 5.8 mph - N/A   Clear
8:55 PM 64.4 °F - 57.2 °F 77% 29.87 in 10.0 mi WNW 5.8 mph - N/A   Clear
9:15 PM 66.2 °F - 57.2 °F 73% 29.87 in 10.0 mi WNW 6.9 mph - N/A   Clear
9:35 PM 64.4 °F - 57.2 °F 77% 29.88 in 10.0 mi WNW 4.6 mph - N/A   Clear
9:58 PM 64.4 °F - 57.2 °F 77% 29.88 in 10.0 mi WNW 3.5 mph - N/A   Clear
10:17 PM 62.6 °F - 57.2 °F 82% 29.89 in 10.0 mi Calm Calm - N/A   Clear
10:36 PM 59.0 °F - 57.2 °F 94% 29.89 in 10.0 mi West 3.5 mph - N/A   Clear
10:55 PM 57.2 °F - 55.4 °F 94% 29.90 in 10.0 mi Calm Calm - N/A   Clear
10:56 PM 57.2 °F - 55.4 °F 94% 29.90 in 10.0 mi Calm Calm - N/A   Clear
11:15 PM 57.2 °F - 55.4 °F 94% 29.90 in 10.0 mi WSW 3.5 mph - N/A   Clear
11:37 PM 59.0 °F - 55.4 °F 88% 29.90 in 10.0 mi Calm Calm - N/A   Clear
11:56 PM 57.2 °F - 55.4 °F 94% 29.90 in 10.0 mi Calm Calm - N/A   Clear